Covington, KY

1:01 PM EST on December 05, 2019 (GMT -0500)
Cincinnati-Northern KY International

Weather History for KCVG - October, 2019

Change the Weather History Date:

Friday, October 4, 2019

  Actual Average Record
Temperature  
Mean Temperature 63 °F 60 °F  
Max Temperature 71 °F 71 °F 88 °F (2007)
Min Temperature 55 °F 49 °F 29 °F (1987)
Degree Days  
Heating Degree Days 2 6  
Month to date heating degree days 1 24  
Since 1 July heating degree days 1 82  
Cooling Degree Days 0 1  
Month to date cooling degree days 47 6  
Year to date cooling degree days 1489 1111  
Growing Degree Days 13 (Base 50)    
Moisture  
Dew Point 45 °F    
Average Humidity 54    
Maximum Humidity 72    
Minimum Humidity 35    
Precipitation  
Precipitation 0.00 in 0.10 in 1.70 in (1990)
Month to date precipitation 0.00 0.39  
Year to date precipitation 42.42 32.81  
Snow  
Snow 0.00 in 0.00 in 0.00 in ()
Month to date snowfall 0.0 0.0  
Since 1 July snowfall 0.0 0.0  
Since 1 September snowfall 0.0 0.0  
Snow Depth 0.00 in    
Sea Level Pressure  
Sea Level Pressure 30.22 in    
Wind  
Wind Speed 11 mph ()    
Max Wind Speed 22 mph    
Max Gust Speed 28 mph    
Visibility 10.0 miles    
Events      
T = Trace of Precipitation, MM = Missing Value Source: Averaged Metar Reports

Daily Weather History Graph

Daily Weather History Graph

Search for Another Location

Airport or City:

Astronomy

Oct. 04, 2019 Rise Set
Actual Time 7:37 AM EDT 7:16 PM EDT
Civil Twilight 7:10 AM EDT 7:43 PM EDT
Nautical Twilight 6:39 AM EDT 8:14 PM EDT
Astronomical Twilight 6:08 AM EDT 8:45 PM EDT
Moon 2:05 PM EDT (10/4) 11:47 PM EDT (10/4)
Length of Visible Light 12h 32m
Length of Day
11h 39m
Waxing Crescent, 39% of the Moon is Illuminated
Oct 4
Waxing Crescent
Oct 5
First Quarter
Oct 13
Full
Oct 21
Last Quarter
Oct 27
New

Hourly Weather History & Observations

Time (EDT) Temp. Dew Point Humidity Pressure Visibility Wind Dir Wind Speed Gust Speed Precip Events Conditions
12:52 AM 66.0 °F 55.0 °F 68% 30.11 in 10.0 mi NNW 10.4 mph - N/A   Clear
1:52 AM 63.0 °F 53.1 °F 70% 30.13 in 10.0 mi North 13.8 mph - N/A   Partly Cloudy
2:52 AM 62.1 °F 52.0 °F 70% 30.16 in 10.0 mi NNE 16.1 mph 24.2 mph N/A   Partly Cloudy
3:27 AM 61.0 °F 52.0 °F 72% 30.19 in 10.0 mi North 13.8 mph 21.9 mph N/A   Mostly Cloudy
3:52 AM 61.0 °F 50.0 °F 67% 30.17 in 10.0 mi NNE 18.4 mph 23.0 mph N/A   Overcast
4:34 AM 59.0 °F 46.9 °F 64% 30.21 in 10.0 mi North 16.1 mph 21.9 mph N/A   Mostly Cloudy
4:52 AM 59.0 °F 46.9 °F 64% 30.19 in 10.0 mi NNE 16.1 mph - N/A   Mostly Cloudy
5:52 AM 57.9 °F 44.1 °F 60% 30.21 in 10.0 mi NNE 13.8 mph - N/A   Mostly Cloudy
6:52 AM 55.9 °F 44.1 °F 64% 30.23 in 10.0 mi NNE 12.7 mph - N/A   Partly Cloudy
7:52 AM 55.9 °F 44.1 °F 64% 30.25 in 10.0 mi NNE 11.5 mph - N/A   Partly Cloudy
8:52 AM 57.0 °F 44.1 °F 62% 30.27 in 10.0 mi NE 10.4 mph - N/A   Clear
9:52 AM 60.1 °F 44.1 °F 55% 30.27 in 10.0 mi NNE 12.7 mph - N/A   Partly Cloudy
10:52 AM 62.1 °F 43.0 °F 50% 30.28 in 10.0 mi North 10.4 mph - N/A   Partly Cloudy
11:52 AM 63.0 °F 43.0 °F 48% 30.28 in 10.0 mi NNE 13.8 mph 18.4 mph N/A   Partly Cloudy
12:52 PM 66.0 °F 43.0 °F 43% 30.26 in 10.0 mi NE 10.4 mph - N/A   Partly Cloudy
1:52 PM 68.0 °F 42.1 °F 39% 30.25 in 10.0 mi NE 8.1 mph - N/A   Partly Cloudy
2:52 PM 69.1 °F 42.1 °F 38% 30.23 in 10.0 mi NNE 10.4 mph - N/A   Partly Cloudy
3:52 PM 71.1 °F 42.1 °F 35% 30.22 in 10.0 mi NE 15.0 mph 18.4 mph N/A   Partly Cloudy
4:52 PM 71.1 °F 42.1 °F 35% 30.21 in 10.0 mi NE 11.5 mph 18.4 mph N/A   Partly Cloudy
5:52 PM 69.1 °F 42.1 °F 38% 30.21 in 10.0 mi ENE 9.2 mph - N/A   Partly Cloudy
6:52 PM 68.0 °F 42.1 °F 39% 30.22 in 10.0 mi NNE 11.5 mph - N/A   Partly Cloudy
7:52 PM 64.9 °F 43.0 °F 45% 30.22 in 10.0 mi NNE 11.5 mph - N/A   Partly Cloudy
8:52 PM 63.0 °F 44.1 °F 50% 30.23 in 10.0 mi NE 10.4 mph - N/A   Partly Cloudy
9:52 PM 62.1 °F 44.1 °F 52% 30.24 in 10.0 mi NE 11.5 mph - N/A   Partly Cloudy
10:52 PM 61.0 °F 45.0 °F 56% 30.25 in 10.0 mi NE 12.7 mph - N/A   Partly Cloudy
11:52 PM 59.0 °F 45.0 °F 60% 30.25 in 10.0 mi NE 12.7 mph - N/A   Partly Cloudy